Hourly Data Report for September 13, 2017

All times are specified in Local Standard Time (LST). Add 1 hour to adjust for Daylight Saving Time where and when it is observed.

PANGNIRTUNG
NUNAVUT

66°08'36.300" N
65°42'40.500" W
22.60 m
2403049
71826
WXP

Download Data

Hourly Data (September 2017)
Hourly Data Report for September 13, 2017
Temp Definition
°C
Dew Point Temp Definition
°C
Rel Hum Definition
%
Wind Dir Definition
10's deg

Wind Spd Definition
km/h
Visibility Definition
km
Stn Press Definition
kPa
Hmdx Definition


Wind Chill Definition


Weather Definition


TIME
00:00 4.2 -0.8 70 10 19   99.54     LegendNANA
01:00 4.8 -1.6 63 10 13   99.51     LegendNANA
02:00 5.0 -1.6 62 7 19   99.46     LegendNANA
03:00 5.1 -1.9 61 9 24   99.44     LegendNANA
04:00 5.2 -2.2 59 9 22   99.48     LegendNANA
05:00 5.3 -2.0 59 8 18   99.50     LegendNANA
06:00 5.1 -1.3 63 5 12   99.56     LegendNANA
07:00 4.9 -1.7 62 7 18   99.59     LegendNANA
08:00 5.5 -1.1 63 8 17   99.59     LegendNANA
09:00 6.3 0.2 65 11 13   99.58     LegendNANA
10:00 7.2 0.8 64 11 7   99.61     LegendNANA
11:00 7.4 -0.3 58 8 12   99.58     LegendNANA
12:00 7.2 -1.3 55 7 21   99.60     LegendNANA
13:00 7.3 -1.4 54 7 20   99.60     LegendNANA
14:00 7.6 -0.8 55 8 25   99.62     LegendNANA
15:00 7.1 -1.2 55 8 24   99.66     LegendNANA
16:00 6.8 -1.2 57 8 25   99.70     LegendNANA
17:00 6.3 -0.8 60 9 23   99.74     LegendNANA
18:00 6.6 -0.5 60 10 25   99.77     LegendNANA
19:00 7.1 -0.3 59 10 20   99.80     LegendNANA
20:00 7.2 -0.1 60 9 18   99.82     LegendNANA
21:00 7.3 0.2 61 8 21   99.84     LegendNANA
22:00 7.5 -0.5 57 8 20   99.82     LegendNANA
23:00 7.0 -0.7 58 9 23   99.82     LegendNANA

Notes on Data Quality.

Legend

  • E = Estimated
  • M = Missing
  • NA = Not Available
  • ‡ = Partner data that is not subject to review by the National Climate Archives
Date modified: